Regional Weather Roundup
Issued by NWS Mt. Holly, NJ

Home | Current Version | Previous Version | Text Only | Print | Product List | Glossary On
Versions: 1 2 3 4 5 6 7 8 9 10 11 12 13 14 15 16 17 18 19 20 21 22 23 24 25 26 27
000
ASUS41 KPHI 250513
RWRPHI

REGIONAL WEATHER ROUNDUP
NATIONAL WEATHER SERVICE MOUNT HOLLY NJ
100 AM EDT WED APR 25 2018

NOTE:  "FAIR" INDICATES FEW OR NO CLOUDS BELOW 12,000 FEET WITH NO
SIGNIFICANT WEATHER AND/OR OBSTRUCTIONS TO VISIBILITY.

 * = STATION DOES NOT REPORT PRECIPITATION (E.G. RAIN, SNOW, ETC.)
        OR FOG.

NJZ015>026-250600-
SOUTHERN NEW JERSEY

CITY           SKY/WX    TMP DP  RH WIND       PRES   REMARKS
POMONA         RAIN      54  54 100 E14G22    30.04F FOG
WILDWOOD*      RAIN      54  53  97 E16G22    30.00F FOG
MILLVILLE      RAIN      54  53  97 E13       30.00F FOG
MOUNT HOLLY    CLOUDY    54  53  97 VRB5      30.05F FOG
TRENTON        RAIN      53  52  96 E8        30.06F FOG

$$
NJZ001>014-250600-
NORTHERN NEW JERSEY

CITY           SKY/WX    TMP DP  RH WIND       PRES   REMARKS
SUSSEX         LGT RAIN  50  47  89 NE6       30.12F
ANDOVER*         N/A     50  48  93 CALM      30.11F
MORRISTOWN     LGT RAIN  52  50  93 NE3       30.12F
NEWARK         LGT RAIN  54  52  93 E12       30.12F
TETERBORO      LGT RAIN  52  48  86 N9        30.12F FOG
CALDWELL       LGT RAIN  50  49  96 E8        30.13F
SOMERVILLE     LGT RAIN  52  52 100 E6        30.07F
ALLAIRE*       CLOUDY    53  51  93 E16       30.10F
TOMS RIVER*    RAIN      53  52  96 SE10      30.08F FOG

$$
PAZ043-044-047-054-055-060>062-066>071-250600-
EASTERN PENNSYLVANIA

CITY           SKY/WX    TMP DP  RH WIND       PRES   REMARKS
PHILADELPHIA   CLOUDY    53  52  96 E13       30.04F
NORTH PHILA    CLOUDY    56  53  90 E13       30.07F
BLUE BELL*     CLOUDY    52  52 100 E8        30.06F
DOYLESTOWN     LGT RAIN  52  52 100 VRB5      30.06F
QUAKERTOWN*    CLOUDY    52  52 100 E5        30.06F FOG
PERKASIE*      LGT RAIN  50  50 100 E7        30.07F
POTTSTOWN      LGT RAIN  51  51 100 E7        30.05F FOG
LANCASTER      LGT RAIN  52  50  93 E12       30.00F FOG
COATESVILLE    LGT RAIN  52  52 100 E13G20    30.02F
READING        CLOUDY    53  52  96 E7        30.02F
ALLENTOWN      LGT RAIN  52  48  86 E10       30.07F FOG
MOUNT POCONO   LGT RAIN  45  45 100 E8        30.07F VSB 3/4
HAZLETON       LGT RAIN  46  46 100 E5        30.07F
LEHIGHTON      LGT RAIN  50  50 100 CALM      30.07F
WILKES BARRE   LGT RAIN  50  47  89 NE7       30.07F

$$
DEZALL-MDZ008-012-015-019-020-250600-
DELAWARE AND EASTERN MARYLAND

CITY           SKY/WX    TMP DP  RH WIND       PRES   REMARKS
WILMINGTON     LGT RAIN  55  54  96 E13       30.01F
GEORGETOWN     LGT RAIN  56  55  97 SE10      29.96F
EASTON         CLOUDY    57  55  93 SE10G20   29.96F FOG
PATUXENT       CLOUDY    59  56  89 SE10      29.90F FOG
OCEAN CITY     CLOUDY    53  53 100 E16G22    29.95F FOG
WALLOPS ISLAND CLOUDY    58  57  97 E12       29.92F
CAMBRIDGE        N/A     57  57 100 SE12      29.91F FOG
SALISBURY      CLOUDY    58  57  97 SE9       29.94F

$$
PAZ001-021-NYZ056-072-MDZ011-DCZ001-250600-
OTHER NEARBY LOCATIONS

CITY           SKY/WX    TMP DP  RH WIND       PRES   REMARKS
HARRISBURG     LGT RAIN  52  50  93 NE7       29.99F FOG
STATE COLLEGE  CLOUDY    50  47  90 E7        30.00F
WILLIAMSPORT   LGT RAIN  51  49  92 E5        30.04F
BINGHAMTON     LGT RAIN  46  45  96 E7        30.08F
NEW YORK CITY  LGT RAIN  55  52  89 VRB6      30.14
BALTIMORE      RAIN      54  54 100 NE10      29.93F FOG
WASHINGTON DC  HVY RAIN  55  53  93 NE9       29.91F FOG

$$




USA.gov is the U.S. government's official web portal to all federal, state and local government web resources and services.